DIRECTV 12

Last updated on Thu Apr 09 2026 00:02:48 GMT+0000 (Coordinated Universal Time)

1 36131U 09075A 26098.43429250 -.00000102 00000+0 00000+0 0 9991 2 36131 0.0227 29.8750 0000572 21.4814 198.9591 1.00272072 45857
UTC large
Height (km)
Speed (km/s)
/
Latitude / Longitude
Inclination (degrees)
Orbital Period (minutes)
Azimuth
Elevation
Range (km)
Doppler Factor

Next 0 passes for location: London (51.5072 / 0.1276)

Sorry there are no passes over London.